Find GPS IIF-6

NORAD ID: 39741 Int'l Des: 2014-026 Owner: AFSMC Country: US Constellation: GPS operational
MEOCIRCULARGNSS

Live-Position

3D-Globus wird geladen...

Über GPS IIF-6

Beschreibung wird geladen...

Nächste Überflüge

Passes for default location (London). Set your location on the main map for personalized predictions.

Höhenverlauf

Loading altitude history...

Zweizeiliger Elementsatz

1 39741U 14026A 26120.59613747 -.00000085 00000-0 00000-0 0 9994
2 39741 56.5201 333.3704 0038859 326.7726 33.0205 2.00564617 87586
Epoch: 30. Apr. 2026 • Age: 25 hours

Aktueller Status

Höhe 20147.0 km
Geschwindigkeit 3.88 km/s
Subsatellitenpunkt 29.42°N, 95.82°W
Startdatum 17. Mai 2014
Alter 11.9 years
Typ navigation

Technische Details

Klassifizierung Payload
Masse 1630.00 kg
Trockenmasse 1500.00 kg
Gesamtmasse 1630.00 kg
Länge 2.50 m
Durchmesser 1.80 m
Spannweite 18.00 m
Form Box+ 2pan
Hersteller BOES
Bus-Typ GPS IIF
Phasenstatus In Orbit
Besitzer/Staat AFSMC/US

Most Searched